CUBESAT XI-IV (CO-57)

Last updated on July 6, 2021, 3:37 p.m. UTC

1 27848U 03031J   21186.76533025  .00000050  00000-0  42307-4 0  9990
2 27848  98.6846 195.2628 0010627  44.6901 315.5132 14.21894237934417
UTC
Height (km)
Latitude
Longitude
Inclination
Orbital Period
UTC large
Height (km)
Speed (km/s)
/
Latitude / Longitude
Inclination (degrees)
Orbital Period (minutes)
Azimuth
Elevation
Range (km)
Doppler Factor
iOS Compass Heading
iOS Angle